York, PA

10:24 AM EDT on June 24, 2017 (GMT -0400)
York

Weather History for KTHV - October, 2012

Change the Weather History Date:

Tuesday, October 9, 2012

  Actual Average Record
Temperature  
Mean Temperature 51 °F -  
Max Temperature 59 °F 0 °F 89 °F (2007)
Min Temperature 45 °F - 21 °F (2001)
Degree Days  
Heating Degree Days 14    
Growing Degree Days 1 (Base 50)    
Moisture  
Dew Point 46 °F    
Average Humidity 79    
Maximum Humidity 94    
Minimum Humidity 62    
Precipitation  
Precipitation 0.00 in - - ()
Sea Level Pressure  
Sea Level Pressure 30.15 in    
Wind  
Wind Speed 2 mph (East)    
Max Wind Speed 7 mph    
Max Gust Speed -    
Visibility 9 miles    
Events Rain    
Averages and records for this station are not official NWS values.
T = Trace of Precipitation, MM = Missing Value Source: NWS Daily Summary

Daily Weather History Graph

Daily Weather History Graph

Search for Another Location

Airport or City:

Trip Planner

Search our weather history database for the weather conditions in past years. The results will help you decide how hot, cold, wet, or windy it might be!

Date:

Astronomy

Oct. 09, 2012 Rise Set
Actual Time 7:12 AM EDT 6:36 PM EDT
Civil Twilight 6:45 AM EDT 7:03 PM EDT
Nautical Twilight 6:13 AM EDT 7:34 PM EDT
Astronomical Twilight 5:42 AM EDT 8:06 PM EDT
Moon 12:47 AM EDT (10/9) 3:02 PM EDT (10/9)
Length of Visible Light 12h 18m
Length of Day
11h 24m
Last Quarter, 37% of the Moon is Illuminated
Oct 9
Last Quarter
Oct 15
New
Oct 21
First Quarter
Oct 29
Full
Nov 6
Last Quarter

Hourly Weather History & Observations

Time (EDT) Temp. Windchill Dew Point Humidity Pressure Visibility Wind Dir Wind Speed Gust Speed Precip Events Conditions
12:53 AM 45.0 °F - 41.0 °F 86% 30.24 in 10.0 mi Calm Calm - N/A   Overcast
1:53 AM 45.0 °F - 41.0 °F 86% 30.24 in 10.0 mi Calm Calm - N/A   Overcast
2:53 AM 45.0 °F - 42.1 °F 90% 30.22 in 9.0 mi Calm Calm - 0.00 in   Overcast
4:53 AM 45.0 °F - 42.1 °F 90% 30.22 in 8.0 mi Calm Calm - N/A   Overcast
5:53 AM 45.0 °F 43.5 °F 42.1 °F 90% 30.22 in 7.0 mi WNW 3.5 mph - N/A   Overcast
6:53 AM 45.0 °F - 43.0 °F 93% 30.22 in 8.0 mi Calm Calm - N/A   Overcast
7:53 AM 46.0 °F - 43.0 °F 89% 30.21 in 8.0 mi Calm Calm - N/A   Overcast
8:53 AM 46.9 °F - 43.0 °F 86% 30.23 in 10.0 mi WNW 3.5 mph - N/A   Overcast
9:53 AM 48.9 °F - 42.1 °F 77% 30.23 in 10.0 mi Calm Calm - N/A   Overcast
10:53 AM 51.1 °F - 43.0 °F 74% 30.21 in 10.0 mi NNE 3.5 mph - N/A   Overcast
11:53 AM 53.1 °F - 44.1 °F 71% 30.20 in 10.0 mi ENE 4.6 mph - N/A   Overcast
12:53 PM 55.9 °F - 45.0 °F 67% 30.18 in 10.0 mi Calm Calm - N/A   Overcast
1:29 PM 57.2 °F - 44.6 °F 63% 30.14 in 10.0 mi ENE 6.9 mph - N/A   Overcast
1:53 PM 57.0 °F - 45.0 °F 64% 30.14 in 10.0 mi ESE 3.5 mph - N/A   Overcast
2:30 PM 57.2 °F - 44.6 °F 63% 30.12 in 10.0 mi East 5.8 mph - N/A   Overcast
2:53 PM 57.9 °F - 45.0 °F 62% 30.14 in 10.0 mi Calm Calm - N/A   Overcast
3:53 PM 57.0 °F - 46.0 °F 67% 30.13 in 10.0 mi ENE 5.8 mph - N/A   Overcast
4:53 PM 57.0 °F - 46.0 °F 67% 30.12 in 10.0 mi NE 4.6 mph - N/A   Overcast
5:53 PM 55.9 °F - 46.9 °F 72% 30.12 in 10.0 mi East 3.5 mph - N/A   Overcast
6:06 PM 55.4 °F - 46.4 °F 72% 30.11 in 10.0 mi East 5.8 mph - N/A   Overcast
6:34 PM 53.6 °F - 46.4 °F 77% 30.11 in 10.0 mi East 4.6 mph - N/A   Partly Cloudy
6:53 PM 53.1 °F - 48.0 °F 83% 30.12 in 10.0 mi ESE 3.5 mph - N/A   Mostly Cloudy
7:53 PM 54.0 °F - 48.9 °F 83% 30.12 in 10.0 mi ESE 3.5 mph - N/A   Overcast
8:40 PM 53.6 °F - 48.2 °F 82% 30.10 in 10.0 mi East 3.5 mph - N/A   Overcast
8:53 PM 54.0 °F - 48.9 °F 83% 30.11 in 10.0 mi East 5.8 mph - N/A   Overcast
9:53 PM 54.0 °F - 48.9 °F 83% 30.11 in 9.0 mi ESE 4.6 mph - N/A   Overcast
10:53 PM 53.1 °F - 50.0 °F 89% 30.09 in 5.0 mi ESE 4.6 mph - N/A   Overcast
11:30 PM 53.6 °F - 50.0 °F 88% 30.07 in 4.0 mi Calm Calm - N/A   Overcast
11:42 PM 53.6 °F - 51.8 °F 94% 30.07 in 2.0 mi Calm Calm - 0.00 in Rain Light Rain
11:53 PM 53.1 °F - 51.1 °F 93% 30.08 in 3.0 mi Calm Calm - 0.00 in   Overcast